K8JMX-13 Weather Reports


Display with metric or nautical units.
time (UTC)temp
F
wind
direction
speed
MPH
gust
MPH
rain 1hr
in
rain 24hr
in
rain mn
in
humidity
%
barometer
mb
20260505130234 61 212 3.0 3.0 0.00 0.00 0.00 73 1007.0
20260505124724 61 183 4.0 6.0 0.00 0.00 0.00 73 1006.9
20260505124221 61 199 2.0 3.0 0.00 0.00 0.00 73 1006.8
20260505123717 61 244 2.0 3.0 0.00 0.00 0.00 73 1006.9
20260505123214 60 197 2.0 3.0 0.00 0.00 0.00 73 1006.8
20260505122710 60 227 5.0 6.0 0.00 0.00 0.00 73 1006.7
20260505122208 60 180 2.0 3.0 0.00 0.00 0.00 73 1006.4
20260505121704 60 180 2.0 4.0 0.00 0.00 0.00 73 1006.4
20260505121201 60 217 3.0 3.0 0.00 0.00 0.00 73 1006.1
20260505120658 60 98 0.0 3.0 0.00 0.00 0.00 73 1006.2
20260505120154 60 176 3.0 4.0 0.00 0.00 0.00 73 1005.9
20260505115652 60 212 3.0 4.0 0.00 0.00 0.00 73 1005.9
20260505115151 60 140 2.0 3.0 0.00 0.00 0.00 73 1006.1
20260505114648 60 228 3.0 3.0 0.00 0.00 0.00 73 1005.9
20260505114144 60 207 4.0 6.0 0.00 0.00 0.00 72 1005.9
20260505113640 60 182 1.0 3.0 0.00 0.00 0.00 72 1006.1
20260505113137 60 172 3.0 4.0 0.00 0.00 0.00 72 1006.3
20260505112633 60 190 2.0 3.0 0.00 0.00 0.00 72 1006.1
20260505112132 61 144 1.0 2.0 0.00 0.00 0.00 71 1006.4
20260505111631 61 316 1.0 3.0 0.00 0.00 0.00 71 1006.3
20260505111127 61 98 0.0 2.0 0.00 0.00 0.00 70 1006.4
20260505110624 61 273 5.0 7.0 0.00 0.00 0.00 70 1006.5
20260505110121 62 208 2.0 7.0 0.00 0.00 0.00 69 1006.6
20260505102057 63 234 4.0 7.0 0.00 0.00 0.00 65 1006.2
20260505101555 63 219 2.0 3.0 0.00 0.00 0.00 65 1006.3
20260505101051 63 215 2.0 6.0 0.00 0.00 0.00 64 1006.4
20260505100548 63 265 2.0 4.0 0.00 0.00 0.00 64 1006.1
20260505100045 63 161 2.0 4.0 0.00 0.00 0.00 64 1006.3
20260505095541 63 286 2.0 4.0 0.00 0.00 0.00 64 1006.2
20260505095037 63 242 2.0 2.0 0.00 0.00 0.00 63 1006.1
20260505094534 63 221 1.0 3.0 0.00 0.00 0.00 63 1006.1
20260505094030 63 75 2.0 3.0 0.00 0.00 0.00 63 1006.1
20260505093527 63 223 1.0 4.0 0.00 0.00 0.00 62 1006.2
20260505093024 64 142 1.0 4.0 0.00 0.00 0.00 62 1005.8
20260505092521 64 264 4.0 6.0 0.00 0.00 0.00 61 1006.1
20260505092020 64 275 2.0 8.0 0.00 0.00 0.00 61 1005.9
20260505091516 64 219 3.0 4.0 0.00 0.00 0.00 61 1005.9
20260505091014 64 246 3.0 7.0 0.00 0.00 0.00 60 1005.8
20260505090512 64 227 4.0 4.0 0.00 0.00 0.00 60 1005.9
20260505090010 64 237 4.0 6.0 0.00 0.00 0.00 59 1005.9
20260505085508 65 203 4.0 4.0 0.00 0.00 0.00 59 1005.8
20260505085006 65 229 3.0 6.0 0.00 0.00 0.00 59 1005.7
20260505084504 65 197 3.0 7.0 0.00 0.00 0.00 58 1005.8
20260505084001 66 247 2.0 4.0 0.00 0.00 0.00 58 1005.5
20260505083458 66 259 4.0 9.0 0.00 0.00 0.00 57 1005.3
20260505082954 66 239 5.0 9.0 0.00 0.00 0.00 56 1005.3
20260505082450 66 263 8.0 10.0 0.00 0.00 0.00 56 1005.3
20260505081947 65 213 3.0 4.0 0.00 0.00 0.00 58 1005.1
20260505081444 65 295 2.0 7.0 0.00 0.00 0.00 58 1005.1
20260505080940 65 172 3.0 6.0 0.00 0.00 0.00 58 1004.9
20260505080437 65 238 2.0 3.0 0.00 0.00 0.00 59 1005.0
20260505075932 65 201 6.0 10.0 0.00 0.00 0.00 59 1004.5
20260505075429 65 187 4.0 7.0 0.00 0.00 0.00 59 1004.6
20260505074927 65 209 3.0 6.0 0.00 0.00 0.00 59 1004.5
20260505074424 65 211 3.0 4.0 0.00 0.00 0.00 59 1004.6
20260505073921 65 151 4.0 6.0 0.00 0.00 0.00 60 1004.7
20260505073419 65 235 4.0 7.0 0.00 0.00 0.00 59 1004.6
20260505072916 65 197 2.0 6.0 0.00 0.00 0.00 60 1004.6
20260505072411 65 206 3.0 4.0 0.00 0.00 0.00 59 1004.6
20260505071908 65 200 2.0 8.0 0.00 0.00 0.00 59 1004.6
20260505071404 65 209 3.0 4.0 0.00 0.00 0.00 59 1004.7
20260505070903 65 194 2.0 7.0 0.00 0.00 0.00 58 1004.5
20260505070358 66 165 3.0 6.0 0.00 0.00 0.00 59 1004.6
20260505065854 65 160 3.0 4.0 0.00 0.00 0.00 59 1004.5
20260505065351 65 190 1.0 4.0 0.00 0.00 0.00 59 1004.5
20260505064848 65 212 3.0 4.0 0.00 0.00 0.00 59 1004.6
20260505064345 65 157 1.0 4.0 0.00 0.00 0.00 59 1004.5
20260505063843 66 216 3.0 4.0 0.00 0.00 0.00 59 1004.5
20260505063339 66 208 3.0 6.0 0.00 0.00 0.00 59 1004.3
20260505062836 66 208 2.0 6.0 0.00 0.00 0.00 59 1004.3
20260505062333 66 206 2.0 4.0 0.00 0.00 0.00 59 1004.2
20260505061830 65 167 3.0 6.0 0.00 0.00 0.00 59 1004.3
20260505061328 66 183 3.0 4.0 0.00 0.00 0.00 59 1004.4
20260505060825 66 176 2.0 4.0 0.00 0.00 0.00 58 1004.4
20260505060322 66 239 4.0 6.0 0.00 0.00 0.00 58 1004.4
20260505055818 66 221 4.0 8.0 0.00 0.00 0.00 58 1004.3
20260505055314 66 152 2.0 4.0 0.00 0.00 0.00 59 1004.5
20260505054812 65 148 2.0 4.0 0.00 0.00 0.00 59 1004.4
20260505054308 66 178 2.0 6.0 0.00 0.00 0.00 59 1004.5
20260505053807 66 163 2.0 4.0 0.00 0.00 0.00 59 1004.7
20260505053303 66 189 2.0 3.0 0.00 0.00 0.00 59 1004.9
20260505052800 66 158 2.0 4.0 0.00 0.00 0.00 58 1004.7
20260505052257 66 215 4.0 4.0 0.00 0.00 0.00 59 1004.9
20260505051754 66 162 3.0 3.0 0.00 0.00 0.00 59 1004.7
20260505051252 66 204 2.0 3.0 0.00 0.00 0.00 59 1005.0
20260505050750 66 180 2.0 3.0 0.00 0.00 0.00 58 1005.1
20260505050248 67 215 4.0 6.0 0.00 0.00 0.00 58 1005.1
20260505041718 68 193 3.0 6.0 0.00 0.00 0.00 56 1005.0
20260505041215 68 111 2.0 3.0 0.00 0.00 0.00 56 1005.1
20260505040712 68 181 3.0 4.0 0.00 0.00 0.00 56 1005.2
20260505040209 68 107 2.0 3.0 0.00 0.00 0.00 56 1005.1
20260505035706 68 92 2.0 4.0 0.00 0.00 0.00 56 1005.2
20260505035202 68 135 1.0 2.0 0.00 0.00 0.00 56 1005.1
20260505034659 68 159 2.0 4.0 0.00 0.00 0.00 56 1005.2
20260505034156 68 217 2.0 4.0 0.00 0.00 0.00 56 1005.1
20260505033652 68 198 2.0 3.0 0.00 0.00 0.00 56 1005.0
20260505033151 68 162 3.0 7.0 0.00 0.00 0.00 56 1004.9
20260505032648 68 157 1.0 3.0 0.00 0.00 0.00 57 1004.9
20260505032144 68 159 2.0 3.0 0.00 0.00 0.00 56 1004.7
20260505031642 68 189 2.0 2.0 0.00 0.00 0.00 56 1005.0
20260505031138 68 169 3.0 3.0 0.00 0.00 0.00 56 1004.7
20260505030635 68 140 2.0 4.0 0.00 0.00 0.00 56 1005.0
20260505030130 68 188 2.0 4.0 0.00 0.00 0.00 56 1004.6
20260505025627 68 191 2.0 6.0 0.00 0.00 0.00 56 1004.9
20260505025126 68 114 1.0 3.0 0.00 0.00 0.00 56 1004.7
20260505024622 68 182 2.0 3.0 0.00 0.00 0.00 56 1004.7
20260505024120 68 226 4.0 4.0 0.00 0.00 0.00 56 1004.7
20260505023617 69 205 5.0 6.0 0.00 0.00 0.00 55 1004.6
20260505023114 69 160 1.0 4.0 0.00 0.00 0.00 55 1004.7
20260505022612 69 198 2.0 4.0 0.00 0.00 0.00 56 1004.9
20260505022108 68 199 2.0 3.0 0.00 0.00 0.00 57 1004.7
20260505021605 69 176 2.0 2.0 0.00 0.00 0.00 56 1004.6
20260505021102 68 191 0.0 2.0 0.00 0.00 0.00 56 1004.6
20260505020602 68 154 1.0 2.0 0.00 0.00 0.00 57 1004.6
20260505020059 68 160 1.0 3.0 0.00 0.00 0.00 57 1004.6
20260505015556 68 150 1.0 3.0 0.00 0.00 0.00 57 1004.6
20260505015053 68 154 2.0 2.0 0.00 0.00 0.00 57 1004.5
20260505014549 68 154 0.0 2.0 0.00 0.00 0.00 57 1004.6
20260505014047 68 112 0.0 2.0 0.00 0.00 0.00 58 1004.4
20260505013544 68 111 1.0 2.0 0.00 0.00 0.00 57 1004.3
20260505013041 68 108 0.0 1.0 0.00 0.00 0.00 57 1004.5
20260505012539 68 129 1.0 2.0 0.00 0.00 0.00 56 1004.4
20260505012036 68 132 1.0 2.0 0.00 0.00 0.00 56 1004.1
20260505011531 68 101 1.0 1.0 0.00 0.00 0.00 55 1004.3
20260505011029 68 140 1.0 2.0 0.00 0.00 0.00 55 1004.2
20260505010524 69 94 0.0 1.0 0.00 0.00 0.00 55 1004.2
20260505010021 69 148 1.0 2.0 0.00 0.00 0.00 54 1004.2
20260505005517 69 201 1.0 2.0 0.00 0.00 0.00 54 1004.3
20260505005015 69 112 1.0 2.0 0.00 0.00 0.00 53 1004.2
20260505004512 70 140 0.0 2.0 0.00 0.00 0.00 52 1004.2
20260505004008 70 177 2.0 4.0 0.00 0.00 0.00 52 1004.3
20260505003505 70 105 1.0 3.0 0.00 0.00 0.00 52 1004.3
20260505003002 70 172 2.0 2.0 0.00 0.00 0.00 51 1004.3
20260505002458 70 133 0.0 2.0 0.00 0.00 0.00 51 1004.2
20260505001956 71 157 1.0 2.0 0.00 0.00 0.00 50 1004.3
20260505001453 71 180 1.0 4.0 0.00 0.00 0.00 50 1004.2
20260505000950 71 187 1.0 2.0 0.00 0.00 0.00 50 1004.3
20260505000448 71 141 3.0 4.0 0.00 0.00 0.00 49 1004.2
20260504235945 72 190 3.0 6.0 0.00 0.00 0.00 48 1004.1
20260504235442 72 156 3.0 6.0 0.00 0.00 0.00 48 1004.2
20260504234938 73 222 2.0 3.0 0.00 0.00 0.00 48 1004.3
20260504234436 73 226 2.0 6.0 0.00 0.00 0.00 47 1004.3
20260504233932 73 215 4.0 7.0 0.00 0.00 0.00 48 1004.5
20260504233428 73 223 4.0 4.0 0.00 0.00 0.00 48 1004.4
20260504232925 73 183 2.0 6.0 0.00 0.00 0.00 48 1004.3
20260504232422 72 211 3.0 3.0 0.00 0.00 0.00 48 1004.3
20260504231919 72 83 0.0 3.0 0.00 0.00 0.00 49 1004.4
20260504231415 72 165 3.0 7.0 0.00 0.00 0.00 48 1004.4
20260504230912 72 221 2.0 7.0 0.00 0.00 0.00 48 1004.3
20260504230409 72 195 5.0 7.0 0.00 0.00 0.00 48 1004.5
20260504225908 71 207 4.0 9.0 0.00 0.00 0.00 48 1004.6
20260504225404 72 93 2.0 4.0 0.00 0.00 0.00 48 1004.7
20260504224902 72 211 4.0 6.0 0.00 0.00 0.00 48 1005.0
20260504224358 72 213 4.0 7.0 0.00 0.00 0.00 48 1005.1
20260504223855 71 244 5.0 9.0 0.00 0.00 0.00 48 1004.9
20260504223351 72 222 6.0 8.0 0.00 0.00 0.00 48 1005.3
20260504222847 71 218 3.0 4.0 0.00 0.00 0.00 49 1005.1
20260504222344 72 166 2.0 4.0 0.00 0.00 0.00 49 1005.3
20260504221843 71 179 2.0 4.0 0.00 0.00 0.00 49 1005.2
20260504221339 70 223 3.0 6.0 0.00 0.00 0.00 50 1005.4
20260504220837 70 228 3.0 6.0 0.00 0.00 0.00 51 1005.2
20260504220333 70 262 7.0 10.0 0.00 0.00 0.00 50 1005.3
20260504215830 72 197 4.0 4.0 0.00 0.00 0.00 49 1005.2
20260504215326 71 219 3.0 10.0 0.00 0.00 0.00 49 1005.5
20260504214823 71 260 9.0 13.0 0.00 0.00 0.00 48 1005.4
20260504214320 71 251 7.0 11.0 0.00 0.00 0.00 48 1005.4
20260504213816 72 226 6.0 11.0 0.00 0.00 0.00 48 1005.3
20260504213312 72 269 9.0 17.0 0.00 0.00 0.00 46 1005.5
20260504212810 72 191 6.0 14.0 0.00 0.00 0.00 46 1005.4
20260504212306 72 260 9.0 11.0 0.00 0.00 0.00 45 1005.4
20260504211804 73 140 8.0 14.0 0.00 0.00 0.00 45 1005.3
20260504211259 73 283 6.0 11.0 0.00 0.00 0.00 46 1005.2
20260504210757 72 214 4.0 4.0 0.00 0.00 0.00 46 1005.2
20260504210254 72 230 3.0 7.0 0.00 0.00 0.00 46 1005.0
20260504205751 71 205 2.0 6.0 0.00 0.00 0.00 47 1005.1
20260504205249 70 234 3.0 6.0 0.00 0.00 0.00 49 1005.4
20260504204747 70 218 4.0 4.0 0.00 0.00 0.00 49 1005.5
20260504204245 70 225 3.0 6.0 0.00 0.00 0.00 51 1005.4
20260504203744 70 214 4.0 16.0 0.00 0.00 0.00 51 1005.7
20260504203241 70 212 5.0 10.0 0.00 0.00 0.00 51 1005.9
20260504202741 70 199 6.0 9.0 0.00 0.00 0.00 50 1005.9
20260504202238 71 258 7.0 9.0 0.00 0.00 0.00 50 1006.1
20260504201735 71 216 4.0 10.0 0.00 0.00 0.00 50 1006.2
20260504201232 71 219 8.0 11.0 0.00 0.00 0.00 50 1006.2
20260504200730 71 153 5.0 10.0 0.00 0.00 0.00 49 1006.3
20260504200226 71 108 7.0 13.0 0.00 0.00 0.00 49 1006.3
20260504195722 72 267 4.0 8.0 0.00 0.00 0.00 48 1006.8
20260504195218 74 258 4.0 8.0 0.00 0.00 0.00 46 1006.2
20260504194716 73 237 6.0 9.0 0.00 0.00 0.00 46 1006.4
20260504194212 73 228 4.0 10.0 0.00 0.00 0.00 46 1006.1
20260504193708 73 234 9.0 11.0 0.00 0.00 0.00 45 1006.4
20260504193206 73 208 6.0 8.0 0.00 0.00 0.00 47 1006.2
20260504192704 74 151 8.0 13.0 0.00 0.00 0.00 45 1006.2
20260504192202 73 248 7.0 10.0 0.00 0.00 0.00 46 1006.1
20260504191700 73 244 6.0 10.0 0.00 0.00 0.00 46 1006.1
20260504191156 73 196 5.0 8.0 0.00 0.00 0.00 45 1006.0
20260504190652 73 205 5.0 8.0 0.00 0.00 0.00 47 1005.9
20260504190149 73 272 8.0 14.0 0.00 0.00 0.00 45 1006.1
20260504185645 73 219 8.0 19.0 0.00 0.00 0.00 45 1006.0
20260504185142 73 216 4.0 11.0 0.00 0.00 0.00 45 1005.9
20260504184638 73 200 2.0 7.0 0.00 0.00 0.00 45 1005.9
20260504184133 73 191 8.0 11.0 0.00 0.00 0.00 45 1006.0
20260504183630 72 209 5.0 8.0 0.00 0.00 0.00 47 1005.9
20260504183128 73 206 4.0 7.0 0.00 0.00 0.00 46 1006.0
20260504182626 72 219 4.0 9.0 0.00 0.00 0.00 47 1006.0
20260504182123 72 207 3.0 6.0 0.00 0.00 0.00 47 1006.2
20260504181620 72 207 4.0 9.0 0.00 0.00 0.00 46 1006.2
20260504181117 71 308 7.0 9.0 0.00 0.00 0.00 46 1006.3
20260504180617 72 241 3.0 8.0 0.00 0.00 0.00 47 1006.3
20260504180115 71 174 2.0 6.0 0.00 0.00 0.00 48 1006.3
20260504175612 71 153 4.0 6.0 0.00 0.00 0.00 47 1006.2
20260504175108 70 248 3.0 6.0 0.00 0.00 0.00 48 1006.5
20260504174607 72 168 3.0 8.0 0.00 0.00 0.00 47 1006.3
20260504174103 72 177 2.0 4.0 0.00 0.00 0.00 47 1006.6
20260504173600 71 238 2.0 11.0 0.00 0.00 0.00 47 1006.6
20260504173058 71 227 3.0 4.0 0.00 0.00 0.00 48 1006.5
20260504172553 71 155 4.0 7.0 0.00 0.00 0.00 49 1006.6
20260504172050 70 216 4.0 6.0 0.00 0.00 0.00 49 1006.6
20260504171547 69 254 4.0 6.0 0.00 0.00 0.00 50 1006.8
20260504171044 69 191 6.0 7.0 0.00 0.00 0.00 49 1006.8
20260504170539 68 190 4.0 7.0 0.00 0.00 0.00 52 1006.7
20260504150924 63 209 4.0 8.0 0.00 0.00 0.00 55 1007.8
20260504150420 63 187 4.0 7.0 0.00 0.00 0.00 54 1007.8
20260504140847 60 158 4.0 6.0 0.00 0.00 0.00 56 1008.0
20260504140343 59 216 2.0 3.0 0.00 0.00 0.00 58 1008.1